Home   Weather   Saint George's   Past weeks
Flag for Grenada

Past Weather in Saint George's, Grenada — Yesterday and Last 2 Weeks

Now
79 °F

Partly sunny.


Feels Like: 82 °F
Forecast: 77 / 72 °F
Wind: 7 mph from East

Location: Point Salines Airport

Current Time: Feb 24, 2020 at 8:29:18 am

Latest Report: Feb 24, 2020 at 7:00 am


Visibility: N/A

Pressure: 29.92 "Hg

Humidity: 89%

Dew Point: 75 °F

Location of Saint George'sLocation

Past Weather in Saint George's — Graph

°F

Saint George's Temperature Yesterday

Maximum temperature yesterday: 84 °F (at 9:00 am)
Minimum temperature yesterday: 77 °F (at 12:00 am)
Average temperature yesterday: 80 °F

High & Low Weather Summary for the Past Weeks

 TemperatureHumidityPressure
High86 °F (Feb 11, 1:00 pm)94% (Feb 18, 1:00 pm)30.09 "Hg (Feb 18, 1:00 pm)
Low73 °F (Feb 19, 8:00 pm)55% (Feb 13, 1:00 pm)29.86 "Hg (Feb 17, 4:00 am)
Average80 °F77%29.95 "Hg
* Reported Feb 9 7:00 am — Feb 24 7:00 am, Saint George's. Weather by CustomWeather, © 2020

Note: Actual official high and low records may vary slightly from our data, if they occured in-between our weather recording intervals... More about our weather records

Saint George's Weather History for the Previous 24 Hours

Scroll right to see more
 ConditionsComfort  
Time TempWeatherWind HumidityBarometerVisibility
7:00 am
Mon, Feb 24
79 °FPartly sunny.7 mph89%29.92 "HgN/A
5:00 am79 °FPassing clouds.9 mph89%29.89 "HgN/A
4:00 am79 °FPassing clouds.12 mph84%29.89 "HgN/A
3:00 am79 °FPassing clouds.6 mph89%29.89 "HgN/A
2:00 am79 °FPassing clouds.9 mph89%29.92 "HgN/A
1:00 am79 °FPassing clouds.10 mph89%29.92 "HgN/A
12:00 am79 °FPartly cloudy.12 mph89%29.95 "HgN/A
11:00 pm
Sun, Feb 23
79 °FPartly cloudy.13 mph89%29.95 "HgN/A
10:00 pm79 °FLight rain. Partly cloudy.12 mph84%29.95 "HgN/A
9:00 pm79 °FPassing clouds.9 mph84%29.95 "HgN/A
8:00 pm81 °FPassing clouds.6 mph74%29.92 "HgN/A
7:00 pm79 °FPassing clouds.6 mph89%29.89 "HgN/A
6:00 pm79 °FPartly sunny.5 mph89%29.89 "HgN/A
5:00 pm79 °FBroken clouds.9 mph89%29.89 "HgN/A
4:00 pm79 °FSprinkles. Partly sunny.12 mph89%29.89 "Hg6 mi
3:00 pm79 °FSprinkles. Partly sunny.14 mph89%29.89 "Hg6 mi
2:00 pm84 °FBroken clouds.14 mph74%29.92 "HgN/A
1:00 pm84 °FScattered clouds.16 mph74%29.92 "HgN/A
12:00 pm84 °FScattered clouds.17 mph70%29.95 "HgN/A
11:00 am84 °FPassing clouds.12 mph74%29.98 "HgN/A
10:00 am84 °FPassing clouds.12 mph74%29.98 "HgN/A
9:00 am84 °FPassing clouds.12 mph70%29.98 "HgN/A
8:00 am81 °FPassing clouds.12 mph79%29.95 "HgN/A
Weather by CustomWeather, © 2020

See weather overview

Advertising